Regional Weather Roundup
Issued by NWS

Home | Current Version | Previous Version | Graphics & Text | Print | Product List | Glossary Off
Versions: 1 2 3 4 5 6 7 8 9 10 11 12 13 14 15 16 17 18 19 20 21 22 23 24 25 26 27 28 29 30 31 32 33 34 35 36 37 38 39 40 41 42 43 44 45 46 47 48 49 50

000
ASUS43 KIND 231209
RWRIN

WEATHER ROUNDUP FOR INDIANA
NATIONAL WEATHER SERVICE INDIANAPOLIS IN
800 AM EDT SUN APR 23 2017

NOTE: "FAIR" INDICATES FEW OR NO CLOUDS BELOW 12,000 FEET WITH NO
SIGNIFICANT WEATHER AND/OR OBSTRUCTIONS TO VISIBILITY.

* - STATION DOES NOT REPORT WEATHER SUCH AS PRECIPITATION OR FOG.

+ - STATION NOT QUALITY CONTROLLED BY THE NATIONAL WEATHER SERVICE.
    USE DATA WITH CAUTION...ESPECIALLY DEWPOINT AND RELATIVE
    HUMIDITY OBSERVATIONS.

INZ001>003-010>013-019-020-231300-
NORTHWEST INDIANA

CITY           SKY/WX    TMP DP  RH WIND       PRES   REMARKS
GARY /AIRPORT/ SUNNY     37  37 100 CALM      30.16R
KNOX *+        SUNNY     32  19  59 N3        30.16R
LA PORTE +     SUNNY     37  33  85 CALM      30.16R
6HR MIN TEMP:  32; 6HR MAX TEMP:  39;

MICHIGAN CITY+ SUNNY     32  32 100 CALM      30.16S
MONTICELLO +   SUNNY     42  32  67 N3        30.13R
6HR MIN TEMP:  37; 6HR MAX TEMP:  43;

RENSSELAER +   SUNNY     41  30  65 N3        30.15R
VALPARAISO     SUNNY     43  29  57 CALM      30.16R
6HR MIN TEMP:  38; 6HR MAX TEMP:  43;


$$

LMZ046-743>745-231300-
SOUTHERN LAKE MICHIGAN

STATION/POSITION TIME  TEMP    WIND        PRES    WAVE
                       AIR SEA DIR/SP/G            HT
                 (UTC) (F)     (DEG/KT/KT) (MB)    (FT)
BURNS HARBOR     1200   46      CALM  /  8 1021.3
MICHIGAN CITY    1140   43        CALM       N/A

$$

INZ004-005-014>016-021>024-231300-
NORTH CENTRAL INDIANA

CITY           SKY/WX    TMP DP  RH WIND       PRES   REMARKS
ELKHART        SUNNY     36  32  87 CALM      30.15
GOSHEN         SUNNY     39  34  82 CALM      30.15R
6HR MIN TEMP:  34; 6HR MAX TEMP:  42;

LOGANSPORT +   SUNNY     39  34  81 N7        30.14R
PERU/GRISSOM   SUNNY     39  35  84 N8        30.11R
6HR MIN TEMP:  35; 6HR MAX TEMP:  43;

ROCHESTER +    SUNNY     41  36  81 N3        30.15R
SOUTH BEND     SUNNY     36  30  79 CALM      30.16R
6HR MIN TEMP:  31; 6HR MAX TEMP:  39;

WARSAW +       SUNNY     36  34  93 CALM      30.15R

$$

INZ006>009-017-018-025>027-231300-
NORTHEAST INDIANA

CITY           SKY/WX    TMP DP  RH WIND       PRES   REMARKS
ANGOLA *+      SUNNY     39  36  87 CALM      30.15R
AUBURN +       SUNNY     41  34  75 CALM      30.15R
FORT WAYNE     SUNNY     39  33  79 NE5       30.14R
6HR MIN TEMP:  36; 6HR MAX TEMP:  42;

HUNTINGTON +   SUNNY     39  33  78 N3        30.13R
6HR MIN TEMP:  34; 6HR MAX TEMP:  41;

KENDALLVILLE + SUNNY     37  36  94 CALM      30.15R

$$

INZ028-029-035-036-043>045-051>053-231300-
WEST CENTRAL INDIANA

CITY           SKY/WX    TMP DP  RH WIND       PRES   REMARKS
CRAWFORDSVL +  SUNNY     38  33  81 NE8       30.10R
6HR MIN TEMP:  34; 6HR MAX TEMP:  40;

GREENCASTLE +  SUNNY     37  32  81 N6        30.08R
LAFAYETTE      SUNNY     41  34  76 N6        30.12R
6HR MIN TEMP:  37; 6HR MAX TEMP:  43;

TERRE HAUTE    SUNNY     41  33  73 N6        30.07R
6HR MIN TEMP:  37; 6HR MAX TEMP:  44;


$$

INZ030>032-037>040-046>048-054>057-064-065-231300-
CENTRAL INDIANA

CITY           SKY/WX    TMP DP  RH WIND       PRES   REMARKS
CP ATTERBURY + SUNNY     43  36  75 NE9       30.06S
COLUMBUS       SUNNY     41  36  81 N10       30.05R
FISHERS *+     SUNNY     39  36  87 CALM      30.09R
FRANKFORT +    SUNNY     44  35  70 NE7       30.12R
6HR MIN TEMP:  40; 6HR MAX TEMP:  44;

GREENWOOD *+   SUNNY     44  33  65 NE7       30.07S
6HR MIN TEMP:  41; 6HR MAX TEMP:  45;

INDIANAPOLIS   SUNNY     43  33  68 NE13      30.07R
6HR MIN TEMP:  40; 6HR MAX TEMP:  46;

-EAGLE CREEK   SUNNY     44  32  62 NE7       30.08R
6HR MIN TEMP:  41; 6HR MAX TEMP:  46;

KOKOMO +       SUNNY     40  34  79 N6        30.13R HAZE
6HR MIN TEMP:  36; 6HR MAX TEMP:  42;

MARION +       SUNNY     39  34  81 N6        30.12R
MT COMFORT *+  SUNNY     39  34  81 NE7       30.08R
SHELBYVILLE    SUNNY     46  34  62 NE14      30.05R
6HR MIN TEMP:  43; 6HR MAX TEMP:  46;

ZIONSVILLE +   SUNNY     40  32  74 NE7       30.09S
6HR MIN TEMP:  36; 6HR MAX TEMP:  41;


$$

INZ033-034-041-042-049-050-058-059-231300-
EAST CENTRAL INDIANA

CITY           SKY/WX    TMP DP  RH WIND       PRES   REMARKS
MUNCIE         SUNNY     40  33  76 NE6       30.09S
6HR MIN TEMP:  34; 6HR MAX TEMP:  42;

RICHMOND +     SUNNY     41  34  75 NE15      30.07R

$$

INZ060-061-067>069-081>083-085>088-231300-
SOUTHWEST INDIANA

CITY           SKY/WX    TMP DP  RH WIND       PRES   REMARKS
EVANSVILLE     SUNNY     47  37  68 N10       30.00R
6HR MIN TEMP:  46; 6HR MAX TEMP:  51;

HUNTINGBURG *+ SUNNY     46  37  71 NE12      30.00R
6HR MIN TEMP:  45; 6HR MAX TEMP:  50;

WASHINGTON +   SUNNY     43  34  70 MISG      30.03R
6HR MIN TEMP:  40; 6HR MAX TEMP:  48;


$$

INZ062-063-066-070>080-084-089>092-231300-
SOUTH CENTRAL AND SOUTHEAST INDIANA

CITY           SKY/WX    TMP DP  RH WIND       PRES   REMARKS
BEDFORD +      SUNNY     45  34  65 NE7       30.01R
BLOOMINGTON    SUNNY     44  34  67 NE8       30.03R
6HR MIN TEMP:  42; 6HR MAX TEMP:  47;

MADISON *+     SUNNY     45  34  65 NE14G23   30.01S
NORTH VERNON + SUNNY     45  37  76 NE7       30.04R
SEYMOUR +      SUNNY     45  36  70 N10       30.03R

$$





USA.gov is the U.S. government's official web portal to all federal, state and local government web resources and services.